When you browse on this site, cookies collect data to enhance your experience and personalize the content and advertising you see.
Visit our Privacy Policy to learn more. By continuing to use the site, you agree to this use of cookies and data.
  • In Austria
  • List of Countries
  • For 7 days
  • Water Temperature
  • Satellite Maps
  • Weather Map
  • News
  • Weather Widgets
  • user-avatar
    Login

    Hourly Weather Morohorovo

    Today, 16 July, Tuesday

    Time Temperature Precipitation Wind Pressure Humidity
    00:00 +13°C° 0 mm 1 mps 745 mmHg 91%
    01:00 +13°C° 0 mm 1 mps 745 mmHg 92%
    02:00 +12°C° 0 mm 1 mps 746 mmHg 91%
    03:00 +12°C° 0 mm 1 mps 745 mmHg 91%
    04:00 +12°C° 0 mm 1 mps 745 mmHg 91%
    05:00 +12°C° 0 mm 1 mps 745 mmHg 91%
    06:00 +14°C° 0 mm 1 mps 745 mmHg 85%
    07:00 +16°C° 0 mm 1 mps 745 mmHg 78%
    08:00 +18°C° 0 mm 2 mps 745 mmHg 72%
    09:00 +20°C° 0.1 mm 2 mps 745 mmHg 66%
    10:00 +21°C° 0.1 mm 2 mps 745 mmHg 60%
    11:00 +23°C° 0.1 mm 2 mps 744 mmHg 54%
    12:00 +24°C° 0.2 mm 2 mps 744 mmHg 54%
    13:00 +24°C° 0.2 mm 3 mps 744 mmHg 54%
    14:00 +24°C° 0.2 mm 3 mps 743 mmHg 54%
    15:00 +24°C° 0.3 mm 3 mps 743 mmHg 60%
    16:00 +22°C° 0.3 mm 3 mps 743 mmHg 65%
    17:00 +23°C° 0.3 mm 2 mps 743 mmHg 71%
    18:00 +20°C° 0.3 mm 2 mps 743 mmHg 76%
    19:00 +18°C° 0.3 mm 2 mps 743 mmHg 82%
    20:00 +17°C° 0.3 mm 2 mps 743 mmHg 87%
    21:00 +16°C° 0.2 mm 2 mps 743 mmHg 89%
    22:00 +16°C° 0.2 mm 2 mps 743 mmHg 91%
    23:00 +14°C° 0.2 mm 3 mps 743 mmHg 94%

    Tomorrow, 17 July, Wednesday

    Time Temperature Precipitation Wind Pressure Humidity
    00:00 +13°C° 0.3 mm 3 mps 743 mmHg 94%
    01:00 +13°C° 0.3 mm 3 mps 743 mmHg 94%
    02:00 +12°C° 0.3 mm 3 mps 743 mmHg 95%
    03:00 +11°C° 0 mm 3 mps 743 mmHg 96%
    04:00 +11°C° 0 mm 3 mps 742 mmHg 97%
    05:00 +10°C° 0 mm 2 mps 742 mmHg 98%
    06:00 +11°C° 0 mm 3 mps 742 mmHg 95%
    07:00 +12°C° 0 mm 3 mps 742 mmHg 92%
    08:00 +13°C° 0 mm 3 mps 742 mmHg 90%
    09:00 +16°C° 0.2 mm 3 mps 742 mmHg 84%
    10:00 +17°C° 0.2 mm 3 mps 742 mmHg 78%
    11:00 +18°C° 0.2 mm 3 mps 742 mmHg 73%
    12:00 +18°C° 0.6 mm 4 mps 742 mmHg 70%
    13:00 +19°C° 0.6 mm 4 mps 742 mmHg 68%
    14:00 +19°C° 0.6 mm 4 mps 742 mmHg 65%
    15:00 +19°C° 0.3 mm 4 mps 741 mmHg 67%
    16:00 +18°C° 0.3 mm 3 mps 741 mmHg 69%
    17:00 +18°C° 0.3 mm 3 mps 741 mmHg 71%
    18:00 +17°C° 0.3 mm 2 mps 741 mmHg 78%
    19:00 +16°C° 0.3 mm 2 mps 741 mmHg 84%
    20:00 +14°C° 0.3 mm 1 mps 741 mmHg 91%
    21:00 +14°C° 0 mm 1 mps 741 mmHg 92%
    22:00 +13°C° 0 mm 1 mps 742 mmHg 93%
    23:00 +12°C° 0 mm 1 mps 742 mmHg 94%

    Day after tomorrow, 18 July, Thursday

    Time Temperature Precipitation Wind Pressure Humidity
    00:00 +12°C° 0 mm 2 mps 742 mmHg 95%
    01:00 +12°C° 0 mm 2 mps 742 mmHg 96%
    02:00 +10°C° 0 mm 2 mps 742 mmHg 97%
    03:00 +10°C° 0 mm 2 mps 742 mmHg 97%
    04:00 +10°C° 0 mm 2 mps 742 mmHg 97%
    05:00 +10°C° 0 mm 2 mps 742 mmHg 98%
    06:00 +11°C° 0 mm 3 mps 742 mmHg 96%
    07:00 +12°C° 0 mm 3 mps 743 mmHg 95%
    08:00 +13°C° 0 mm 4 mps 743 mmHg 94%
    09:00 +14°C° 0 mm 4 mps 743 mmHg 90%
    10:00 +14°C° 0 mm 4 mps 743 mmHg 87%
    11:00 +15°C° 0 mm 4 mps 743 mmHg 83%
    12:00 +17°C° 0.1 mm 4 mps 743 mmHg 82%
    13:00 +17°C° 0.1 mm 4 mps 743 mmHg 80%
    14:00 +18°C° 0.1 mm 4 mps 743 mmHg 79%
    15:00 +18°C° 0.4 mm 4 mps 743 mmHg 79%
    16:00 +19°C° 0.4 mm 3 mps 744 mmHg 80%
    17:00 +19°C° 0.4 mm 3 mps 744 mmHg 80%
    18:00 +18°C° 0.2 mm 3 mps 744 mmHg 85%
    19:00 +17°C° 0.2 mm 2 mps 744 mmHg 89%
    20:00 +16°C° 0.2 mm 2 mps 744 mmHg 94%
    21:00 +16°C° 0 mm 2 mps 744 mmHg 95%
    22:00 +15°C° 0 mm 2 mps 745 mmHg 96%
    23:00 +15°C° 0 mm 2 mps 745 mmHg 97%

    19 July, Friday

    Time Temperature Precipitation Wind Pressure Humidity
    00:00 +14°C° 0 mm 2 mps 745 mmHg 97%
    01:00 +14°C° 0 mm 2 mps 745 mmHg 97%
    02:00 +13°C° 0 mm 2 mps 745 mmHg 97%
    03:00 +13°C° 0 mm 2 mps 746 mmHg 97%
    04:00 +13°C° 0 mm 2 mps 746 mmHg 96%
    05:00 +13°C° 0 mm 2 mps 746 mmHg 96%
    06:00 +13°C° 0 mm 3 mps 746 mmHg 91%
    07:00 +16°C° 0 mm 3 mps 747 mmHg 85%
    08:00 +18°C° 0 mm 3 mps 747 mmHg 79%
    09:00 +19°C° 0 mm 3 mps 747 mmHg 70%
    10:00 +21°C° 0 mm 4 mps 747 mmHg 62%
    11:00 +23°C° 0 mm 4 mps 747 mmHg 54%
    12:00 +23°C° 0 mm 4 mps 747 mmHg 52%
    13:00 +25°C° 0 mm 4 mps 747 mmHg 51%
    14:00 +25°C° 0 mm 4 mps 747 mmHg 50%
    15:00 +25°C° 0.2 mm 3 mps 747 mmHg 55%
    16:00 +24°C° 0.2 mm 3 mps 747 mmHg 60%
    17:00 +22°C° 0.2 mm 3 mps 747 mmHg 65%
    18:00 +21°C° 0.1 mm 2 mps 748 mmHg 72%
    19:00 +19°C° 0.1 mm 2 mps 748 mmHg 79%
    20:00 +19°C° 0.1 mm 1 mps 748 mmHg 86%
    21:00 +18°C° 0 mm 1 mps 748 mmHg 88%
    22:00 +16°C° 0 mm 1 mps 749 mmHg 89%
    23:00 +15°C° 0 mm 1 mps 749 mmHg 91%

    20 July, Saturday

    Time Temperature Precipitation Wind Pressure Humidity
    00:00 +15°C° 0 mm 1 mps 749 mmHg 92%
    01:00 +15°C° 0 mm 1 mps 749 mmHg 92%
    02:00 +14°C° 0 mm 1 mps 749 mmHg 93%
    03:00 +14°C° 0 mm 1 mps 749 mmHg 92%
    04:00 +14°C° 0 mm 1 mps 749 mmHg 92%
    05:00 +14°C° 0 mm 1 mps 750 mmHg 92%
    06:00 +16°C° 0 mm 1 mps 750 mmHg 85%
    07:00 +19°C° 0 mm 1 mps 750 mmHg 78%
    08:00 +21°C° 0 mm 1 mps 750 mmHg 71%
    09:00 +22°C° 0 mm 1 mps 750 mmHg 64%
    10:00 +24°C° 0 mm 2 mps 750 mmHg 58%
    11:00 +25°C° 0 mm 2 mps 750 mmHg 51%
    12:00 +26°C° 0 mm 2 mps 750 mmHg 49%
    13:00 +26°C° 0 mm 2 mps 750 mmHg 46%
    14:00 +27°C° 0 mm 2 mps 750 mmHg 44%
    15:00 +26°C° 0 mm 2 mps 750 mmHg 46%
    16:00 +26°C° 0 mm 2 mps 750 mmHg 48%
    17:00 +26°C° 0 mm 2 mps 750 mmHg 51%
    18:00 +24°C° 0 mm 2 mps 750 mmHg 59%
    19:00 +22°C° 0 mm 1 mps 750 mmHg 67%
    20:00 +20°C° 0 mm 1 mps 750 mmHg 75%
    21:00 +19°C° 0 mm 1 mps 751 mmHg 77%
    22:00 +18°C° 0 mm 1 mps 751 mmHg 79%
    23:00 +16°C° 0 mm 1 mps 751 mmHg 81%

    21 July, Sunday

    Time Temperature Precipitation Wind Pressure Humidity
    00:00 +15°C° 0 mm 0 mps 751 mmHg 81%
    01:00 +15°C° 0 mm 0 mps 751 mmHg 82%
    02:00 +14°C° 0 mm 0 mps 751 mmHg 83%
    03:00 +14°C° 0 mm 0 mps 751 mmHg 83%
    04:00 +14°C° 0 mm 0 mps 751 mmHg 83%
    05:00 +14°C° 0 mm 0 mps 752 mmHg 83%
    06:00 +16°C° 0 mm 0 mps 752 mmHg 77%
    07:00 +18°C° 0 mm 0 mps 752 mmHg 71%
    08:00 +23°C° 0 mm 1 mps 752 mmHg 64%
    09:00 +24°C° 0 mm 1 mps 752 mmHg 60%
    10:00 +26°C° 0 mm 1 mps 752 mmHg 56%
    11:00 +27°C° 0 mm 1 mps 753 mmHg 51%
    12:00 +27°C° 0 mm 1 mps 752 mmHg 50%
    13:00 +28°C° 0 mm 1 mps 752 mmHg 48%
    14:00 +28°C° 0 mm 2 mps 752 mmHg 47%
    15:00 +27°C° 0.1 mm 2 mps 752 mmHg 52%
    16:00 +27°C° 0.1 mm 2 mps 752 mmHg 56%
    17:00 +26°C° 0.1 mm 2 mps 752 mmHg 61%
    18:00 +24°C° 0.1 mm 2 mps 752 mmHg 67%
    19:00 +23°C° 0.1 mm 2 mps 752 mmHg 74%
    20:00 +21°C° 0.1 mm 1 mps 752 mmHg 80%
    21:00 +20°C° 0 mm 1 mps 752 mmHg 81%
    22:00 +19°C° 0 mm 1 mps 753 mmHg 82%
    23:00 +18°C° 0 mm 1 mps 753 mmHg 83%
    Show more